Regional Weather Roundup
Issued by NWS Goodland, KS

Home | Current Version | Previous Version | Graphics & Text | Print | Product List | Glossary On
Versions: 1 2 3 4 5 6 7 8 9 10 11 12 13 14 15 16 17 18 19 20 21 22 23 24 25 26 27 28 29 30 31 32 33 34 35 36 37 38 39 40 41 42 43 44 45 46 47 48 49 50
803
ASUS43 KGLD 241359
RWRGLD

GOODLAND FORECAST AREA HOURLY WEATHER ROUNDUP
NATIONAL WEATHER SERVICE GOODLAND KS
800 AM MDT FRI MAR 24 2017

...OFFICIAL OBSERVATIONS...

CITY           SKY/WX    TMP DP  RH WIND       PRES   REMARKS
GOODLAND KS    TSTM      44  44 100 NE33G49   29.71R FOG
HILL CITY KS   CLOUDY    56  55  97 E13       29.72R
IMPERIAL NEB   CLOUDY    42  38  85 N30G44    29.86R
MCCOOK NEB     CLOUDY    44  41  89 N35G53    29.76R
AKRON CO       FLURRIES  38  36  92 N36G46    29.90R
BURLINGTON CO  TSTM      42  41  96 N40G59    29.73R FOG
LIMON CO       LGT SNOW  32  32 100 N32G45    29.85R VSB 3/4 WCI  17
$$

...UNOFFICIAL OBSERVATIONS...

CITY           SKY/WX    TMP DP  RH WIND       PRES   REMARKS
LENORA KS        N/A     53  32  45 N12G20      N/A
NORTON KS      CLOUDY    46  43  87 N29G41    29.75R
SHARON SPRINGS   N/A     42  39  88 NW8         N/A
TRENTON NEB      N/A     42  32  68 N21G29      N/A
YUMA CO        LGT RAIN  37  36  93 N35G44    29.85R
$$




USA.gov is the U.S. government's official web portal to all federal, state and local government web resources and services.